Weather History for Alliance, NE

Change the Weather History Date:

Saturday, February 16, 2013

  Actual Average Record
Temperature  
Mean Temperature 37 °F 27 °F  
Max Temperature 54 °F 41 °F 68 °F (1961)
Min Temperature 20 °F 13 °F -21 °F (1990)
Degree Days  
Heating Degree Days 28 38  
Month to date heating degree days 575 628  
Since 1 July heating degree days 4644 4973  
Cooling Degree Days 0 0  
Month to date cooling degree days 0 0  
Year to date cooling degree days 0 0  
Moisture  
Dew Point 21 °F    
Average Humidity 52    
Maximum Humidity 75    
Minimum Humidity 29    
Precipitation  
Precipitation 0.00 in 0.02 in 0.37 in (1939)
Month to date precipitation T 0.21  
Year to date precipitation 0.22 0.39  
Sea Level Pressure  
Sea Level Pressure 30.04 in    
Wind  
Wind Speed 15 mph (WNW)    
Max Wind Speed 29 mph    
Max Gust Speed 37 mph    
Visibility 10 miles    
Events      
T = Trace of Precipitation, MM = Missing Value Source: NWS Daily Summary

Daily Weather History Graph

Daily Weather History Graph

Search for Another Location

Airport:

Trip Planner

Search our weather history database for the weather conditions in past years. The results will help you decide how hot, cold, wet, or windy it might be!

Date:

Astronomy

Feb. 16, 2013 Rise Set
Actual Time 6:45 AM MST 5:25 PM MST
Civil Twilight 6:16 AM MST 5:54 PM MST
Nautical Twilight 5:44 AM MST 6:27 PM MST
Astronomical Twilight 5:11 AM MST 6:59 PM MST
Moon 9:52 AM MST (2/16) No Moon Set
Length of Visible Light 11h 37m
Length of Day
10h 40m
Waxing Crescent, 40% of the Moon is Illuminated
Feb 16
Waxing Crescent
Feb 17
First Quarter
Feb 25
Full
Mar 4
Last Quarter
Mar 11
New

Hourly Weather History & Observations

Time (MST) Temp. Windchill Dew Point Humidity Pressure Visibility Wind Dir Wind Speed Gust Speed Precip Events Conditions
12:53 AM 26.1 °F 15.6 °F 18.0 °F 71% 30.21 in 10.0 mi WSW 11.5 mph - N/A   Overcast
1:53 AM 26.1 °F 15.0 °F 18.0 °F 71% 30.18 in 10.0 mi WSW 12.7 mph - N/A   Overcast
2:53 AM 28.9 °F 18.2 °F 19.0 °F 67% 30.15 in 10.0 mi West 13.8 mph - N/A   Overcast
3:53 AM 30.9 °F 19.4 °F 19.0 °F 61% 30.12 in 10.0 mi West 17.3 mph - N/A   Overcast
4:53 AM 33.8 °F 22.8 °F 19.4 °F 56% 30.03 in 10.0 mi West 18.4 mph - N/A   Overcast
5:53 AM 35.1 °F 24.8 °F 19.9 °F 54% 30.12 in 10.0 mi West 17.3 mph - N/A   Overcast
6:53 AM 35.1 °F 25.2 °F 19.9 °F 54% 30.14 in 10.0 mi West 16.1 mph - N/A   Overcast
7:53 AM 37.9 °F 27.6 °F 19.9 °F 48% 30.13 in 10.0 mi WNW 20.7 mph - N/A   Overcast
8:53 AM 39.0 °F 28.8 °F 19.9 °F 46% 30.13 in 10.0 mi WNW 21.9 mph 25.3 mph N/A   Partly Cloudy
9:53 AM 45.0 °F 35.6 °F 21.0 °F 39% 30.08 in 10.0 mi WNW 27.6 mph 32.2 mph N/A   Clear
10:53 AM 48.9 °F - 21.9 °F 35% 30.07 in 10.0 mi NW 19.6 mph 33.4 mph N/A   Clear
11:53 AM 51.1 °F - 23.0 °F 33% 30.04 in 10.0 mi NW 23.0 mph 33.4 mph N/A   Partly Cloudy
12:53 PM 52.0 °F - 23.0 °F 32% 30.01 in 10.0 mi NW 16.1 mph 29.9 mph N/A   Partly Cloudy
1:53 PM 53.1 °F - 23.0 °F 31% 29.98 in 10.0 mi NW 24.2 mph 33.4 mph N/A   Clear
2:53 PM 53.1 °F - 23.0 °F 31% 29.97 in 10.0 mi NW 18.4 mph 31.1 mph N/A   Clear
3:53 PM 51.1 °F - 23.0 °F 33% 29.97 in 10.0 mi NNW 18.4 mph 24.2 mph N/A   Clear
4:53 PM 48.0 °F - 25.0 °F 41% 29.96 in 10.0 mi WNW 9.2 mph - N/A   Clear
5:53 PM 37.0 °F 30.4 °F 23.0 °F 57% 29.99 in 10.0 mi WNW 9.2 mph - N/A   Clear
6:53 PM 32.0 °F 25.6 °F 21.0 °F 64% 30.00 in 10.0 mi WNW 6.9 mph - N/A   Clear
7:53 PM 28.9 °F 19.8 °F 19.9 °F 69% 29.98 in 10.0 mi West 10.4 mph - N/A   Clear
8:53 PM 26.1 °F 16.2 °F 19.0 °F 75% 29.99 in 10.0 mi WSW 10.4 mph - N/A   Clear
9:53 PM 25.0 °F 18.1 °F 18.0 °F 75% 29.96 in 10.0 mi West 5.8 mph - N/A   Clear
10:53 PM 24.1 °F 15.2 °F 18.0 °F 77% 29.93 in 10.0 mi West 8.1 mph - N/A   Clear
11:53 PM 23.0 °F 13.9 °F 18.0 °F 81% 29.91 in 10.0 mi West 8.1 mph - N/A   Clear